Location: Caltech
(34.1382°N, 118.1253°W)
Time: 09:51:39
(UTC-07:00)

RS-15 - Visible Passes

Search period start: 30 September 2016 00:00
Search period end: 10 October 2016 00:00
Orbit: 1882 x 2163 km, 64.8° (Epoch: 29 September)

Date Brightness Start Highest point End Pass type
(mag) Time Alt. Az. Time Alt. Az. Time Alt. Az.
30 Sep 10.2 00:55:00 10° NNW 00:59:39 12° N 01:04:20 10° NNE visible
30 Sep 9.7 03:08:46 10° NNW 03:18:46 27° NE 03:28:35 10° E visible
30 Sep 8.2 05:20:43 10° NNW 05:33:11 88° ENE 05:45:14 10° SSE visible
30 Sep 8.1 19:37:47 10° SSW 19:49:15 83° ESE 20:01:26 10° NNE visible
30 Sep 9.5 21:53:27 10° W 22:03:15 29° NW 22:13:29 10° NNE visible
01 Oct 10.2 00:17:13 10° NNW 00:22:00 13° N 00:26:48 10° NNE visible
01 Oct 9.8 02:32:49 10° NNW 02:41:47 22° NNE 02:50:36 10° E visible
01 Oct 8.4 04:44:39 10° NNW 04:57:04 70° ENE 05:09:03 10° SE visible
01 Oct 8.1 19:02:07 10° S 19:13:21 65° ESE 19:25:13 10° NE visible
01 Oct 9.2 21:16:03 10° WSW 21:26:32 37° NW 21:37:34 10° NNE visible
01 Oct 10.1 23:38:51 10° NW 23:44:23 14° NNW 23:50:00 10° NNE visible
02 Oct 10.0 01:56:49 10° NNW 02:04:35 18° NNE 02:12:17 10° ENE visible
02 Oct 8.7 04:08:40 10° NNW 04:20:48 56° NE 04:32:33 10° SE visible
02 Oct 8.5 06:21:49 10° NW 06:32:51 41° WSW 06:43:36 10° S visible
02 Oct 8.9 20:39:00 10° WSW 20:50:01 47° NW 21:01:39 10° NNE visible
02 Oct 10.1 23:00:16 10° NW 23:06:54 16° NNW 23:13:39 10° NNE visible
03 Oct 10.1 01:20:41 10° NNW 01:27:12 15° NNE 01:33:43 10° NE visible
03 Oct 9.0 03:32:44 10° NNW 03:44:24 44° NE 03:55:43 10° ESE visible
03 Oct 8.2 05:45:20 10° NW 05:57:08 55° WSW 06:08:34 10° S visible
03 Oct 8.6 20:02:19 10° SW 20:13:40 59° NW 20:25:42 10° NNE visible
03 Oct 9.9 22:21:49 10° WNW 22:29:35 19° NNW 22:37:33 10° NNE visible
04 Oct 10.1 00:44:16 10° NNW 00:49:41 13° NNE 00:55:06 10° NE visible
04 Oct 9.3 02:56:49 10° NNW 03:07:49 35° NE 03:18:33 10° ESE visible
04 Oct 8.1 05:09:02 10° NNW 05:21:17 71° WSW 05:33:08 10° SSE visible
04 Oct 8.3 19:25:56 10° SW 19:37:27 75° WNW 19:49:40 10° NNE visible
04 Oct 9.8 21:43:38 10° W 21:52:26 23° NNW 22:01:34 10° NNE visible
05 Oct 10.2 00:07:20 10° NNW 00:12:03 13° N 00:16:47 10° NNE visible
05 Oct 9.5 02:20:54 10° NNW 02:31:03 28° NE 02:40:59 10° E visible
05 Oct 8.1 04:32:53 10° NNW 04:45:20 90° WSW 04:57:21 10° SSE visible
05 Oct 8.2 18:49:53 10° SSW 19:01:24 86° ESE 19:13:36 10° NNE visible
05 Oct 9.6 21:05:49 10° W 21:15:31 29° NW 21:25:38 10° NNE visible
05 Oct 10.2 23:29:40 10° NNW 23:34:23 13° N 23:39:08 10° NNE visible
06 Oct 9.7 01:44:58 10° NNW 01:54:05 23° NNE 02:03:04 10° E visible
06 Oct 8.2 03:56:49 10° NNW 04:09:14 73° ENE 04:21:14 10° SE visible
06 Oct 8.7 06:10:54 10° NW 06:20:33 29° WSW 06:30:01 10° SSW visible
06 Oct 9.3 20:28:22 10° WSW 20:38:47 36° NW 20:49:42 10° NNE visible
06 Oct 10.1 22:51:21 10° NW 22:56:46 14° NNW 23:02:14 10° NNE visible
07 Oct 9.9 01:08:58 10° NNW 01:16:56 19° NNE 01:24:48 10° ENE visible
07 Oct 8.5 03:20:49 10° NNW 03:33:01 58° NE 03:44:47 10° SE visible
07 Oct 8.4 05:34:03 10° NW 05:44:57 39° WSW 05:55:34 10° S visible
07 Oct 9.1 19:51:16 10° WSW 20:02:13 45° NW 20:13:47 10° NNE visible
07 Oct 10.1 22:12:47 10° NW 22:19:15 15° NNW 22:25:50 10° NNE visible
08 Oct 10.0 00:32:51 10° NNW 00:39:34 16° NNE 00:46:15 10° NE visible
08 Oct 8.8 02:44:52 10° NNW 02:56:36 46° NE 03:08:00 10° ESE visible
08 Oct 8.2 04:57:32 10° NW 05:09:15 53° WSW 05:20:36 10° S visible
08 Oct 8.8 19:14:31 10° SW 19:25:50 57° NW 19:37:50 10° NNE visible
08 Oct 10.0 21:34:18 10° WNW 21:41:54 18° NNW 21:49:42 10° NNE visible
08 Oct 10.1 23:56:30 10° NNW 00:02:03 14° NNE 00:07:38 10° NE visible
09 Oct 9.1 02:08:57 10° NNW 02:20:03 36° NE 02:30:52 10° ESE visible
09 Oct 8.0 04:21:13 10° NNW 04:33:25 69° WSW 04:45:12 10° SSE visible
09 Oct 8.5 18:38:06 10° SW 18:49:37 73° WNW 19:01:50 10° NNE visible
09 Oct 9.8 20:56:05 10° W 21:04:45 22° NNW 21:13:42 10° NNE visible
09 Oct 10.1 23:19:39 10° NNW 23:24:26 13° N 23:29:14 10° NNE visible
